Location: Unspecified
(0.0000°N, 0.0000°E)
Time: 03:32:53
(UTC+00:00)

Transit 2A Rocket - Pass Details

Date: 16 December 2018
Orbit: 586 x 918 km, 66.7° (Epoch: 16 January)

Event Time Altitude Azimuth Distance (km) Brightness Sun altitude
Rises 18:45:35 0° 329° (NNW) 3,534 8.5 -11.4°
Reaches altitude 10° 18:48:12 10° 323° (NW) 2,600 7.9 -12.0°
Maximum altitude 18:54:01 47° 251° (WSW) 1,184 6.5 -13.4°
Drops below altitude 10° 18:59:43 10° 178° (S) 2,534 8.0 -14.7°
Sets 19:02:14 0° 172° (S) 3,437 8.6 -15.2°
